Time,TemperatureF,DewpointF,PressureIn,WindDirection,WindDirectionDegrees,WindSpeedMPH,WindSpeedGustMPH,Humidity,HourlyPrecipIn,Conditions,Clouds,dailyrainin,SoftwareType,DateUTC
2013-03-05 00:00:00,47.9,-24.1,30.17,NE,45,0.0,0.0,4,0.00,,CLR,0.00,VWS V13.01,2013-03-05 05:00:00,
2013-03-05 00:05:00,48.0,-19.8,30.17,NE,45,0.0,0.0,5,0.00,,CLR,0.00,VWS V13.01,2013-03-05 05:05:00,
2013-03-05 00:10:00,48.1,-19.7,30.17,NE,45,0.0,0.0,5,0.00,,CLR,0.00,VWS V13.01,2013-03-05 05:10:00,
2013-03-05 00:15:00,48.0,-24.0,30.17,NE,45,0.0,0.0,4,0.00,,CLR,0.00,VWS V13.01,2013-03-05 05:15:00,
2013-03-05 00:20:00,47.9,-48.5,30.17,NE,45,0.0,0.0,1,0.00,,CLR,0.00,VWS V13.01,2013-03-05 05:20:00,
2013-03-05 00:25:00,47.9,0.0,30.17,NE,45,0.0,0.0,0,0.00,,CLR,0.00,VWS V13.01,2013-03-05 05:25:00,
2013-03-05 00:30:00,47.9,0.0,30.17,NE,45,0.0,0.0,0,0.00,,CLR,0.00,VWS V13.01,2013-03-05 05:30:00,
2013-03-05 00:35:00,47.9,0.0,30.16,NE,45,0.0,0.0,0,0.00,,CLR,0.00,VWS V13.01,2013-03-05 05:35:00,
2013-03-05 00:40:00,47.8,0.0,30.16,NE,45,0.0,0.0,0,0.00,,CLR,0.00,VWS V13.01,2013-03-05 05:40:00,
2013-03-05 00:45:00,47.7,0.0,30.16,NE,45,0.0,0.0,0,0.00,,CLR,0.00,VWS V13.01,2013-03-05 05:45:00,
2013-03-05 00:50:00,47.6,0.0,30.16,NE,45,0.0,0.0,0,0.00,,CLR,0.00,VWS V13.01,2013-03-05 05:50:00,
2013-03-05 00:55:00,47.7,0.0,30.16,NE,45,0.0,0.0,0,0.00,,CLR,0.00,VWS V13.01,2013-03-05 05:55:00,
2013-03-05 01:00:00,47.9,0.0,30.16,NE,45,0.0,0.0,0,0.00,,CLR,0.00,VWS V13.01,2013-03-05 06:00:00,
2013-03-05 01:05:00,48.4,0.0,30.16,NE,45,0.0,0.0,0,0.00,,CLR,0.00,VWS V13.01,2013-03-05 06:05:00,
2013-03-05 01:10:00,48.7,0.0,30.16,NE,45,0.0,0.0,0,0.00,,CLR,0.00,VWS V13.01,2013-03-05 06:10:00,
2013-03-05 01:15:00,48.8,0.0,30.16,NE,45,0.0,0.0,0,0.00,,CLR,0.00,VWS V13.01,2013-03-05 06:15:00,
2013-03-05 01:20:00,49.1,0.0,30.16,NE,45,0.0,0.0,0,0.00,,CLR,0.00,VWS V13.01,2013-03-05 06:20:00,
2013-03-05 01:25:00,49.5,0.0,30.15,NE,45,0.0,0.0,0,0.00,,CLR,0.00,VWS V13.01,2013-03-05 06:25:00,
2013-03-05 01:30:00,50.1,0.0,30.15,NE,45,0.0,0.0,0,0.00,,CLR,0.00,VWS V13.01,2013-03-05 06:30:00,
2013-03-05 01:35:00,50.3,0.0,30.15,NE,45,0.0,0.0,0,0.00,,CLR,0.00,VWS V13.01,2013-03-05 06:35:00,
2013-03-05 01:40:00,50.7,0.0,30.15,NE,45,0.0,0.0,0,0.00,,CLR,0.00,VWS V13.01,2013-03-05 06:40:00,
2013-03-05 01:45:00,51.2,0.0,30.15,NE,45,0.0,0.0,0,0.00,,CLR,0.00,VWS V13.01,2013-03-05 06:45:00,
2013-03-05 01:50:00,51.8,0.0,30.14,NE,45,0.0,0.0,0,0.00,,CLR,0.00,VWS V13.01,2013-03-05 06:50:00,
2013-03-05 01:55:00,52.3,0.0,30.14,NE,45,0.0,0.0,0,0.00,,CLR,0.00,VWS V13.01,2013-03-05 06:55:00,
2013-03-05 02:00:00,52.6,0.0,30.14,NE,45,0.0,0.0,0,0.00,,CLR,0.00,VWS V13.01,2013-03-05 07:00:00,
2013-03-05 02:05:00,53.0,0.0,30.14,NE,45,0.0,0.0,0,0.00,,CLR,0.00,VWS V13.01,2013-03-05 07:05:00,
2013-03-05 02:10:00,53.3,0.0,30.14,NE,45,0.0,0.0,0,0.00,,CLR,0.00,VWS V13.01,2013-03-05 07:10:00,
2013-03-05 02:15:00,53.8,0.0,30.14,NE,45,0.0,0.0,0,0.00,,CLR,0.00,VWS V13.01,2013-03-05 07:15:00,
2013-03-05 02:20:00,54.0,0.0,30.14,NE,45,0.0,0.0,0,0.00,,CLR,0.00,VWS V13.01,2013-03-05 07:20:00,
2013-03-05 02:25:00,54.4,0.0,30.14,NE,45,0.0,0.0,0,0.00,,CLR,0.00,VWS V13.01,2013-03-05 07:25:00,
2013-03-05 02:30:00,54.4,0.0,30.14,NE,45,0.0,0.0,0,0.00,,CLR,0.00,VWS V13.01,2013-03-05 07:30:00,
2013-03-05 02:35:00,54.5,0.0,30.14,NE,45,0.0,0.0,0,0.00,,CLR,0.00,VWS V13.01,2013-03-05 07:35:00,
2013-03-05 02:40:00,54.8,0.0,30.13,NE,45,0.0,0.0,0,0.00,,CLR,0.00,VWS V13.01,2013-03-05 07:40:00,
2013-03-05 02:45:00,54.8,0.0,30.13,NE,45,0.0,0.0,0,0.00,,CLR,0.00,VWS V13.01,2013-03-05 07:45:00,
2013-03-05 02:50:00,55.0,0.0,30.13,NE,45,0.0,0.0,0,0.00,,CLR,0.00,VWS V13.01,2013-03-05 07:50:00,
2013-03-05 02:55:00,55.0,0.0,30.13,NE,45,0.0,0.0,0,0.00,,CLR,0.00,VWS V13.01,2013-03-05 07:55:00,
2013-03-05 03:00:00,54.8,0.0,30.13,NE,45,0.0,0.0,0,0.00,,CLR,0.00,VWS V13.01,2013-03-05 08:00:00,
2013-03-05 03:05:00,54.7,0.0,30.13,NE,45,0.0,0.0,0,0.00,,CLR,0.00,VWS V13.01,2013-03-05 08:05:00,
2013-03-05 03:10:00,54.8,0.0,30.13,NE,45,0.0,0.0,0,0.00,,CLR,0.00,VWS V13.01,2013-03-05 08:10:00,
2013-03-05 03:15:00,55.0,0.0,30.13,NE,45,0.0,0.0,0,0.00,,CLR,0.00,VWS V13.01,2013-03-05 08:15:00,
2013-03-05 03:20:00,55.0,0.0,30.13,NE,45,0.0,0.0,0,0.00,,CLR,0.00,VWS V13.01,2013-03-05 08:20:00,
2013-03-05 03:25:00,54.9,0.0,30.12,NE,45,0.0,0.0,0,0.00,,CLR,0.00,VWS V13.01,2013-03-05 08:25:00,
2013-03-05 03:30:00,54.7,0.0,30.12,NE,45,0.0,0.0,0,0.00,,CLR,0.00,VWS V13.01,2013-03-05 08:30:00,
2013-03-05 03:35:00,54.5,0.0,30.12,NE,45,0.0,0.0,0,0.00,,CLR,0.00,VWS V13.01,2013-03-05 08:35:00,
2013-03-05 03:40:00,54.5,0.0,30.12,NE,45,0.0,0.0,0,0.00,,CLR,0.00,VWS V13.01,2013-03-05 08:40:00,
2013-03-05 03:45:00,54.4,0.0,30.12,NE,45,0.0,0.0,0,0.00,,CLR,0.00,VWS V13.01,2013-03-05 08:45:00,
2013-03-05 03:50:00,54.2,0.0,30.13,NE,45,0.0,0.0,0,0.00,,CLR,0.00,VWS V13.01,2013-03-05 08:50:00,
2013-03-05 03:55:00,54.1,0.0,30.13,NE,45,0.0,0.0,0,0.00,,CLR,0.00,VWS V13.01,2013-03-05 08:55:00,
2013-03-05 04:00:00,54.1,0.0,30.13,NE,45,0.0,0.0,0,0.00,,CLR,0.00,VWS V13.01,2013-03-05 09:00:00,
2013-03-05 04:05:00,54.0,0.0,30.13,NE,45,0.0,0.0,0,0.00,,CLR,0.00,VWS V13.01,2013-03-05 09:05:00,
2013-03-05 04:10:00,54.0,0.0,30.13,NE,45,0.0,0.0,0,0.00,,CLR,0.00,VWS V13.01,2013-03-05 09:10:00,
2013-03-05 04:15:00,53.8,0.0,30.13,NE,45,0.0,0.0,0,0.00,,CLR,0.00,VWS V13.01,2013-03-05 09:15:00,
2013-03-05 04:20:00,53.9,0.0,30.13,NE,45,0.0,0.0,0,0.00,,CLR,0.00,VWS V13.01,2013-03-05 09:20:00,
2013-03-05 04:25:00,53.6,0.0,30.13,NE,45,0.0,0.0,0,0.00,,CLR,0.00,VWS V13.01,2013-03-05 09:25:00,
2013-03-05 04:30:00,53.3,0.0,30.13,NE,45,0.0,0.0,0,0.00,,CLR,0.00,VWS V13.01,2013-03-05 09:30:00,
2013-03-05 04:35:00,53.6,0.0,30.13,NE,45,0.0,0.0,0,0.00,,CLR,0.00,VWS V13.01,2013-03-05 09:35:00,
2013-03-05 04:40:00,53.8,0.0,30.13,NE,45,0.0,0.0,0,0.00,,CLR,0.00,VWS V13.01,2013-03-05 09:40:00,
2013-03-05 04:45:00,53.7,0.0,30.13,NE,45,0.0,0.0,0,0.00,,CLR,0.00,VWS V13.01,2013-03-05 09:45:00,
2013-03-05 04:50:00,53.5,0.0,30.13,NE,45,0.0,0.0,0,0.00,,CLR,0.00,VWS V13.01,2013-03-05 09:50:00,
2013-03-05 04:55:00,53.6,0.0,30.13,NE,45,0.0,0.0,0,0.00,,CLR,0.00,VWS V13.01,2013-03-05 09:55:00,
2013-03-05 05:00:00,52.9,0.0,30.14,NE,45,0.0,0.0,0,0.00,,CLR,0.00,VWS V13.01,2013-03-05 10:00:00,
2013-03-05 05:05:00,52.2,0.0,30.14,NE,45,0.0,0.0,0,0.00,,CLR,0.00,VWS V13.01,2013-03-05 10:05:00,
2013-03-05 05:10:00,52.1,0.0,30.14,NE,45,0.0,0.0,0,0.00,,CLR,0.00,VWS V13.01,2013-03-05 10:10:00,
2013-03-05 05:15:00,52.5,0.0,30.14,NE,45,0.0,0.0,0,0.00,,CLR,0.00,VWS V13.01,2013-03-05 10:15:00,
2013-03-05 05:20:00,52.8,0.0,30.14,NE,45,0.0,0.0,0,0.00,,CLR,0.00,VWS V13.01,2013-03-05 10:20:00,
2013-03-05 05:25:00,52.6,0.0,30.14,NE,45,0.0,0.0,0,0.00,,CLR,0.00,VWS V13.01,2013-03-05 10:25:00,
2013-03-05 05:30:00,52.6,0.0,30.15,NE,45,0.0,0.0,0,0.00,,CLR,0.00,VWS V13.01,2013-03-05 10:30:00,
2013-03-05 05:35:00,52.6,0.0,30.15,NE,45,0.0,0.0,0,0.00,,CLR,0.00,VWS V13.01,2013-03-05 10:35:00,
2013-03-05 05:40:00,52.6,0.0,30.15,NE,45,0.0,0.0,0,0.00,,CLR,0.00,VWS V13.01,2013-03-05 10:40:00,
2013-03-05 05:45:00,52.4,0.0,30.15,NE,45,0.0,0.0,0,0.00,,CLR,0.00,VWS V13.01,2013-03-05 10:45:00,
2013-03-05 05:50:00,52.3,0.0,30.15,NE,45,0.0,0.0,0,0.00,,CLR,0.00,VWS V13.01,2013-03-05 10:50:00,
2013-03-05 05:55:00,52.0,0.0,30.15,NE,45,0.0,0.0,0,0.00,,CLR,0.00,VWS V13.01,2013-03-05 10:55:00,
2013-03-05 06:00:00,52.1,0.0,30.15,NE,45,0.0,0.0,0,0.00,,CLR,0.00,VWS V13.01,2013-03-05 11:00:00,
2013-03-05 06:05:00,52.1,0.0,30.15,NE,45,0.0,0.0,0,0.00,,CLR,0.00,VWS V13.01,2013-03-05 11:05:00,
2013-03-05 06:10:00,52.1,0.0,30.15,NE,45,0.0,0.0,0,0.00,,CLR,0.00,VWS V13.01,2013-03-05 11:10:00,
2013-03-05 06:15:00,52.1,0.0,30.15,NE,45,0.0,0.0,0,0.00,,CLR,0.00,VWS V13.01,2013-03-05 11:15:00,
2013-03-05 06:20:00,51.7,0.0,30.15,NE,45,0.0,0.0,0,0.00,,CLR,0.00,VWS V13.01,2013-03-05 11:20:00,
2013-03-05 06:24:00,51.6,0.0,30.15,NE,45,0.0,0.0,0,0.00,,CLR,0.00,VWS V13.01,2013-03-05 11:24:00,
2013-03-05 06:29:00,52.0,0.0,30.16,NE,45,0.0,0.0,0,0.00,,CLR,0.00,VWS V13.01,2013-03-05 11:29:00,
2013-03-05 06:34:00,52.2,0.0,30.15,NE,45,0.0,0.0,0,0.00,,CLR,0.00,VWS V13.01,2013-03-05 11:34:00,
2013-03-05 06:39:00,52.3,0.0,30.15,NE,45,0.0,0.0,0,0.00,,CLR,0.00,VWS V13.01,2013-03-05 11:39:00,
2013-03-05 06:44:00,52.4,0.0,30.15,NE,45,0.0,0.0,0,0.00,,CLR,0.00,VWS V13.01,2013-03-05 11:44:00,
2013-03-05 06:49:00,52.4,0.0,30.15,NE,45,0.0,0.0,0,0.00,,CLR,0.00,VWS V13.01,2013-03-05 11:49:00,
2013-03-05 06:54:00,52.1,0.0,30.16,NE,53,0.0,0.0,0,0.00,,CLR,0.00,VWS V13.01,2013-03-05 11:54:00,
2013-03-05 07:00:00,52.1,0.0,30.16,NE,53,0.0,0.0,0,0.00,,CLR,0.00,VWS V13.01,2013-03-05 12:00:00,
2013-03-05 07:05:00,52.2,0.0,30.16,NE,53,0.0,0.0,0,0.00,,CLR,0.00,VWS V13.01,2013-03-05 12:05:00,
2013-03-05 07:10:00,52.9,0.0,30.16,NE,53,0.0,0.0,0,0.00,,CLR,0.00,VWS V13.01,2013-03-05 12:10:00,
2013-03-05 07:15:00,53.8,0.0,30.16,NE,53,0.0,0.0,0,0.00,,CLR,0.00,VWS V13.01,2013-03-05 12:15:00,
2013-03-05 07:20:00,54.8,0.0,30.16,NE,53,0.0,0.0,0,0.00,,CLR,0.00,VWS V13.01,2013-03-05 12:20:00,
2013-03-05 07:25:00,55.6,0.0,30.16,NE,53,0.0,0.0,0,0.00,,CLR,0.00,VWS V13.01,2013-03-05 12:25:00,
2013-03-05 07:30:00,56.7,0.0,30.16,NE,53,0.0,0.0,0,0.00,,CLR,0.00,VWS V13.01,2013-03-05 12:30:00,
2013-03-05 07:35:00,57.7,0.0,30.17,NE,53,0.0,0.0,0,0.00,,CLR,0.00,VWS V13.01,2013-03-05 12:35:00,
2013-03-05 07:40:00,58.7,0.0,30.17,NE,53,0.0,0.0,0,0.00,,CLR,0.00,VWS V13.01,2013-03-05 12:40:00,
2013-03-05 07:45:00,59.8,0.0,30.17,SW,234,0.0,0.0,0,0.00,,CLR,0.00,VWS V13.01,2013-03-05 12:45:00,
2013-03-05 07:49:00,60.9,0.0,30.17,SW,234,0.0,0.0,0,0.00,,CLR,0.00,VWS V13.01,2013-03-05 12:49:00,
2013-03-05 07:55:00,61.9,0.0,30.17,SW,234,0.0,0.0,0,0.00,,CLR,0.00,VWS V13.01,2013-03-05 12:55:00,
2013-03-05 07:59:00,63.0,0.0,30.17,SW,234,0.0,0.0,0,0.00,,CLR,0.00,VWS V13.01,2013-03-05 12:59:00,
2013-03-05 08:04:00,64.2,0.0,30.17,SW,234,0.0,0.0,0,0.00,,CLR,0.00,VWS V13.01,2013-03-05 13:04:00,
2013-03-05 08:09:00,65.1,0.0,30.17,SW,234,0.0,0.0,0,0.00,,CLR,0.00,VWS V13.01,2013-03-05 13:09:00,
2013-03-05 08:14:00,66.3,0.0,30.18,SW,234,0.0,0.0,0,0.00,,CLR,0.00,VWS V13.01,2013-03-05 13:14:00,
2013-03-05 08:19:00,66.9,0.0,30.18,SW,234,0.0,0.0,0,0.00,,CLR,0.00,VWS V13.01,2013-03-05 13:19:00,
2013-03-05 08:24:00,67.6,0.0,30.17,SW,234,0.0,0.0,0,0.00,,CLR,0.00,VWS V13.01,2013-03-05 13:24:00,
2013-03-05 08:29:00,68.0,0.0,30.18,SW,234,0.0,0.0,0,0.00,,CLR,0.00,VWS V13.01,2013-03-05 13:29:00,
2013-03-05 08:34:00,68.4,0.0,30.18,SW,234,0.0,0.0,0,0.00,,CLR,0.00,VWS V13.01,2013-03-05 13:34:00,
2013-03-05 08:39:00,69.1,0.0,30.17,SW,234,0.0,1.0,0,0.00,,CLR,0.00,VWS V13.01,2013-03-05 13:39:00,
2013-03-05 08:44:00,69.9,0.0,30.18,SW,234,0.0,1.0,0,0.00,,CLR,0.00,VWS V13.01,2013-03-05 13:44:00,
2013-03-05 08:49:00,70.5,0.0,30.18,SW,234,0.0,1.0,0,0.00,,CLR,0.00,VWS V13.01,2013-03-05 13:49:00,
2013-03-05 08:54:00,70.0,0.0,30.18,SW,234,0.0,1.0,0,0.00,,CLR,0.00,VWS V13.01,2013-03-05 13:54:00,
2013-03-05 08:59:00,70.2,0.0,30.18,SW,234,0.0,1.0,0,0.00,,CLR,0.00,VWS V13.01,2013-03-05 13:59:00,
2013-03-05 09:04:00,70.8,0.0,30.17,SW,234,0.0,0.0,0,0.00,,SCT035,0.00,VWS V13.01,2013-03-05 14:04:00,
2013-03-05 09:09:00,70.9,0.0,30.17,SW,234,0.0,0.0,0,0.00,,SCT035,0.00,VWS V13.01,2013-03-05 14:09:00,
2013-03-05 09:14:00,71.0,0.0,30.17,SW,234,0.0,0.0,0,0.00,,SCT035,0.00,VWS V13.01,2013-03-05 14:14:00,
2013-03-05 09:19:00,72.2,0.0,30.17,SW,234,0.0,0.0,0,0.00,,SCT035,0.00,VWS V13.01,2013-03-05 14:19:00,
2013-03-05 09:24:00,71.6,0.0,30.17,SW,231,0.0,1.0,0,0.00,,SCT035,0.00,VWS V13.01,2013-03-05 14:24:00,
2013-03-05 09:29:00,71.0,0.0,30.17,SW,231,0.0,1.0,0,0.00,,SCT035,0.00,VWS V13.01,2013-03-05 14:29:00,
2013-03-05 09:34:00,71.7,0.0,30.17,SW,231,0.0,0.0,0,0.00,,SCT035,0.00,VWS V13.01,2013-03-05 14:34:00,
2013-03-05 09:39:00,68.9,0.0,30.17,SW,230,0.0,0.0,0,0.00,,SCT035,0.00,VWS V13.01,2013-03-05 14:39:00,
2013-03-05 09:44:00,70.5,0.0,30.17,SW,231,0.0,1.0,0,0.00,,SCT035,0.00,VWS V13.01,2013-03-05 14:44:00,
2013-03-05 09:49:00,67.5,0.0,30.17,ESE,105,5.0,7.0,0,0.00,,SCT035,0.00,VWS V13.01,2013-03-05 14:49:00,
2013-03-05 09:54:00,68.4,0.0,30.17,ESE,106,0.0,7.0,0,0.00,,SCT035,0.00,VWS V13.01,2013-03-05 14:54:00,
2013-03-05 09:59:00,67.9,0.0,30.17,SSW,201,5.0,7.0,0,0.00,,SCT035,0.00,VWS V13.01,2013-03-05 14:59:00,
2013-03-05 10:04:00,67.6,0.0,30.16,South,188,0.0,3.0,0,0.00,,FEW033,0.00,VWS V13.01,2013-03-05 15:04:00,
2013-03-05 10:09:00,67.2,0.0,30.16,South,188,0.0,3.0,0,0.00,,FEW033,0.00,VWS V13.01,2013-03-05 15:09:00,
2013-03-05 10:14:00,66.6,0.0,30.16,South,187,0.0,3.0,0,0.00,,FEW033,0.00,VWS V13.01,2013-03-05 15:14:00,
2013-03-05 10:19:00,68.1,0.0,30.16,South,188,0.0,3.0,0,0.00,,FEW033,0.00,VWS V13.01,2013-03-05 15:19:00,
2013-03-05 10:24:00,67.1,0.0,30.16,East,95,0.0,8.0,0,0.00,,FEW033,0.00,VWS V13.01,2013-03-05 15:24:00,
2013-03-05 10:29:00,66.0,0.0,30.16,ESE,113,0.0,8.0,0,0.00,,FEW033,0.00,VWS V13.01,2013-03-05 15:29:00,
2013-03-05 10:34:00,66.0,0.0,30.16,ESE,119,1.0,8.0,0,0.00,,FEW033,0.00,VWS V13.01,2013-03-05 15:34:00,
2013-03-05 10:39:00,66.4,0.0,30.15,ESE,119,0.0,8.0,0,0.00,,FEW033,0.00,VWS V13.01,2013-03-05 15:39:00,
2013-03-05 10:44:00,66.3,-6.7,30.16,ESE,116,0.0,11.0,5,0.00,,FEW033,0.00,VWS V13.01,2013-03-05 15:44:00,
2013-03-05 10:49:00,66.4,3.3,30.15,ESE,119,0.0,11.0,8,0.00,,FEW033,0.00,VWS V13.01,2013-03-05 15:49:00,
2013-03-05 10:54:00,66.7,20.5,30.16,ESE,112,0.0,11.0,17,0.00,,FEW033,0.00,VWS V13.01,2013-03-05 15:54:00,
2013-03-05 10:59:00,66.5,17.5,30.16,ESE,115,5.0,11.0,15,0.00,,FEW033,0.00,VWS V13.01,2013-03-05 15:59:00,
2013-03-05 11:04:00,67.0,25.8,30.15,SSE,161,1.0,8.0,21,0.00,,CLR,0.00,VWS V13.01,2013-03-05 16:04:00,
2013-03-05 11:09:00,66.7,24.4,30.15,ESE,113,0.0,11.0,20,0.00,,CLR,0.00,VWS V13.01,2013-03-05 16:09:00,
2013-03-05 11:14:00,67.3,32.2,30.16,SE,125,0.0,11.0,27,0.00,,CLR,0.00,VWS V13.01,2013-03-05 16:14:00,
2013-03-05 11:19:00,70.2,34.7,30.16,ESE,117,4.0,11.0,27,0.00,,CLR,0.00,VWS V13.01,2013-03-05 16:19:00,
2013-03-05 11:24:00,68.5,32.3,30.15,ESE,119,4.0,11.0,26,0.00,,CLR,0.00,VWS V13.01,2013-03-05 16:24:00,
2013-03-05 11:29:00,67.7,29.6,30.15,ESE,119,2.0,11.0,24,0.00,,CLR,0.00,VWS V13.01,2013-03-05 16:29:00,
2013-03-05 11:34:00,68.1,28.9,30.15,ESE,115,1.0,6.0,23,0.00,,CLR,0.00,VWS V13.01,2013-03-05 16:34:00,
2013-03-05 11:39:00,69.6,37.7,30.15,ESE,111,0.0,11.0,31,0.00,,CLR,0.00,VWS V13.01,2013-03-05 16:39:00,
2013-03-05 11:44:00,70.3,40.6,30.16,ESE,111,0.0,11.0,34,0.00,,CLR,0.00,VWS V13.01,2013-03-05 16:44:00,
2013-03-05 11:49:00,69.4,37.5,30.15,ESE,113,0.0,11.0,31,0.00,,CLR,0.00,VWS V13.01,2013-03-05 16:49:00,
2013-03-05 11:54:00,70.6,40.1,30.15,ESE,113,0.0,11.0,33,0.00,,CLR,0.00,VWS V13.01,2013-03-05 16:54:00,
2013-03-05 11:59:00,70.7,39.4,30.15,ESE,113,0.0,11.0,32,0.00,,CLR,0.00,VWS V13.01,2013-03-05 16:59:00,
2013-03-05 12:04:00,69.7,36.9,30.15,ESE,117,0.0,8.0,30,0.00,,CLR,0.00,VWS V13.01,2013-03-05 17:04:00,
2013-03-05 12:09:00,68.6,27.1,30.15,ESE,111,0.0,11.0,21,0.00,,CLR,0.00,VWS V13.01,2013-03-05 17:09:00,
2013-03-05 12:14:00,69.6,34.2,30.15,ESE,113,8.0,11.0,27,0.00,,CLR,0.00,VWS V13.01,2013-03-05 17:14:00,
2013-03-05 12:19:00,68.9,31.7,30.14,ESE,111,0.0,11.0,25,0.00,,CLR,0.00,VWS V13.01,2013-03-05 17:19:00,
2013-03-05 12:24:00,69.9,37.9,30.14,ESE,109,7.0,11.0,31,0.00,,CLR,0.00,VWS V13.01,2013-03-05 17:24:00,
2013-03-05 12:29:00,71.3,42.3,30.14,ESE,116,0.0,11.0,35,0.00,,CLR,0.00,VWS V13.01,2013-03-05 17:29:00,
2013-03-05 12:34:00,72.4,42.5,30.14,ESE,117,0.0,0.0,34,0.00,,CLR,0.00,VWS V13.01,2013-03-05 17:34:00,
2013-03-05 12:39:00,70.2,38.2,30.13,ESE,107,0.0,8.0,31,0.00,,CLR,0.00,VWS V13.01,2013-03-05 17:39:00,
2013-03-05 12:44:00,71.0,40.5,30.13,SE,124,4.0,9.0,33,0.00,,CLR,0.00,VWS V13.01,2013-03-05 17:44:00,
2013-03-05 12:49:00,69.5,36.7,30.13,ESE,116,0.0,11.0,30,0.00,,CLR,0.00,VWS V13.01,2013-03-05 17:49:00,
2013-03-05 12:54:00,70.2,37.3,30.13,ESE,121,0.0,11.0,30,0.00,,CLR,0.00,VWS V13.01,2013-03-05 17:54:00,
2013-03-05 12:59:00,70.6,38.5,30.13,ESE,119,0.0,11.0,31,0.00,,CLR,0.00,VWS V13.01,2013-03-05 17:59:00,
2013-03-05 13:04:00,71.6,41.0,30.13,ESE,117,0.0,2.0,33,0.00,,FEW030,0.00,VWS V13.01,2013-03-05 18:04:00,
2013-03-05 13:09:00,70.8,37.0,30.12,SE,126,2.0,12.0,29,0.00,,FEW030,0.00,VWS V13.01,2013-03-05 18:09:00,
2013-03-05 13:14:00,70.7,37.8,30.12,ESE,118,2.0,12.0,30,0.00,,FEW030,0.00,VWS V13.01,2013-03-05 18:14:00,
2013-03-05 13:19:00,69.2,36.5,30.12,ESE,115,0.0,12.0,30,0.00,,FEW030,0.00,VWS V13.01,2013-03-05 18:19:00,
2013-03-05 13:24:00,69.6,36.0,30.12,ESE,105,0.0,12.0,29,0.00,,FEW030,0.00,VWS V13.01,2013-03-05 18:24:00,
2013-03-05 13:29:00,71.8,42.7,30.11,ESE,109,5.0,12.0,35,0.00,,FEW030,0.00,VWS V13.01,2013-03-05 18:29:00,
2013-03-05 13:34:00,70.8,41.1,30.11,ESE,112,8.0,12.0,34,0.00,,FEW030,0.00,VWS V13.01,2013-03-05 18:34:00,
2013-03-05 13:39:00,69.6,37.7,30.11,ESE,109,0.0,12.0,31,0.00,,FEW030,0.00,VWS V13.01,2013-03-05 18:39:00,
2013-03-05 13:44:00,71.3,41.5,30.11,East,90,6.0,12.0,34,0.00,,FEW030,0.00,VWS V13.01,2013-03-05 18:44:00,
2013-03-05 13:49:00,71.3,41.5,30.11,ESE,121,1.0,12.0,34,0.00,,FEW030,0.00,VWS V13.01,2013-03-05 18:49:00,
2013-03-05 13:54:00,71.7,42.6,30.11,ESE,111,5.0,13.0,35,0.00,,FEW030,0.00,VWS V13.01,2013-03-05 18:54:00,
2013-03-05 13:59:00,70.6,39.3,30.10,ESE,113,0.0,13.0,32,0.00,,FEW030,0.00,VWS V13.01,2013-03-05 18:59:00,
2013-03-05 14:04:00,70.2,39.0,30.10,ESE,111,0.0,12.0,32,0.00,,CLR,0.00,VWS V13.01,2013-03-05 19:04:00,
2013-03-05 14:09:00,70.1,38.1,30.10,ESE,120,0.0,12.0,31,0.00,,CLR,0.00,VWS V13.01,2013-03-05 19:09:00,
2013-03-05 14:14:00,70.0,38.8,30.10,ESE,107,1.0,12.0,32,0.00,,CLR,0.00,VWS V13.01,2013-03-05 19:14:00,
2013-03-05 14:19:00,71.2,42.2,30.10,ESE,105,1.0,12.0,35,0.00,,CLR,0.00,VWS V13.01,2013-03-05 19:19:00,
2013-03-05 14:24:00,71.3,41.5,30.10,East,99,0.0,14.0,34,0.00,,CLR,0.00,VWS V13.01,2013-03-05 19:24:00,
2013-03-05 14:29:00,71.2,41.4,30.09,ESE,119,0.0,14.0,34,0.00,,CLR,0.00,VWS V13.01,2013-03-05 19:29:00,
2013-03-05 14:34:00,71.2,42.2,30.10,ESE,107,1.0,7.0,35,0.00,,CLR,0.00,VWS V13.01,2013-03-05 19:34:00,
2013-03-05 14:39:00,71.4,43.1,30.09,ESE,115,0.0,16.0,36,0.00,,CLR,0.00,VWS V13.01,2013-03-05 19:39:00,
2013-03-05 14:44:00,71.1,42.1,30.09,ESE,112,5.0,16.0,35,0.00,,CLR,0.00,VWS V13.01,2013-03-05 19:44:00,
2013-03-05 14:49:00,72.1,43.0,30.09,East,101,7.0,16.0,35,0.00,,CLR,0.00,VWS V13.01,2013-03-05 19:49:00,
2013-03-05 14:54:00,70.6,41.7,30.09,ESE,119,2.0,16.0,35,0.00,,CLR,0.00,VWS V13.01,2013-03-05 19:54:00,
2013-03-05 14:59:00,70.1,38.9,30.09,ESE,109,5.0,16.0,32,0.00,,CLR,0.00,VWS V13.01,2013-03-05 19:59:00,
2013-03-05 15:04:00,70.9,42.6,30.09,SE,133,0.0,9.0,36,0.00,,FEW040,0.00,VWS V13.01,2013-03-05 20:04:00,
2013-03-05 15:09:00,70.2,40.5,30.09,ESE,103,0.0,12.0,34,0.00,,FEW040,0.00,VWS V13.01,2013-03-05 20:09:00,
2013-03-05 15:14:00,69.9,38.7,30.09,ESE,105,0.0,13.0,32,0.00,,FEW040,0.00,VWS V13.01,2013-03-05 20:14:00,
2013-03-05 15:19:00,71.5,43.2,30.09,ESE,111,0.0,13.0,36,0.00,,FEW040,0.00,VWS V13.01,2013-03-05 20:19:00,
2013-03-05 15:24:00,71.7,44.8,30.09,ESE,114,9.0,15.0,38,0.00,,FEW040,0.00,VWS V13.01,2013-03-05 20:24:00,
2013-03-05 15:29:00,71.0,42.0,30.08,ESE,117,0.0,15.0,35,0.00,,FEW040,0.00,VWS V13.01,2013-03-05 20:29:00,
2013-03-05 15:34:00,71.0,42.7,30.08,ESE,111,2.0,12.0,36,0.00,,FEW040,0.00,VWS V13.01,2013-03-05 20:34:00,
2013-03-05 15:39:00,71.2,42.9,30.09,ESE,115,4.0,12.0,36,0.00,,FEW040,0.00,VWS V13.01,2013-03-05 20:39:00,
2013-03-05 15:44:00,70.8,41.8,30.09,ESE,120,0.0,12.0,35,0.00,,FEW040,0.00,VWS V13.01,2013-03-05 20:44:00,
2013-03-05 15:49:00,69.6,40.0,30.09,ESE,109,0.0,12.0,34,0.00,,FEW040,0.00,VWS V13.01,2013-03-05 20:49:00,
2013-03-05 15:54:00,70.6,43.8,30.08,ESE,112,0.0,15.0,38,0.00,,FEW040,0.00,VWS V13.01,2013-03-05 20:54:00,
2013-03-05 15:59:00,71.3,40.7,30.08,ESE,113,0.0,15.0,33,0.00,,FEW040,0.00,VWS V13.01,2013-03-05 20:59:00,
2013-03-05 16:04:00,71.5,43.9,30.09,ESE,115,4.0,4.0,37,0.00,,CLR,0.00,VWS V13.01,2013-03-05 21:04:00,
2013-03-05 16:09:00,70.2,40.5,30.08,ESE,114,0.0,7.0,34,0.00,,CLR,0.00,VWS V13.01,2013-03-05 21:09:00,
2013-03-05 16:14:00,71.0,42.0,30.08,ESE,117,0.0,7.0,35,0.00,,CLR,0.00,VWS V13.01,2013-03-05 21:14:00,
2013-03-05 16:19:00,69.8,40.2,30.08,ESE,113,4.0,11.0,34,0.00,,CLR,0.00,VWS V13.01,2013-03-05 21:19:00,
2013-03-05 16:24:00,69.6,40.0,30.08,ESE,120,0.0,11.0,34,0.00,,CLR,0.00,VWS V13.01,2013-03-05 21:24:00,
2013-03-05 16:29:00,70.1,39.7,30.08,ESE,122,0.0,11.0,33,0.00,,CLR,0.00,VWS V13.01,2013-03-05 21:29:00,
2013-03-05 16:34:00,69.6,39.2,30.08,ESE,122,0.0,5.0,33,0.00,,CLR,0.00,VWS V13.01,2013-03-05 21:34:00,
2013-03-05 16:39:00,69.1,38.8,30.08,ESE,119,0.0,7.0,33,0.00,,CLR,0.00,VWS V13.01,2013-03-05 21:39:00,
2013-03-05 16:44:00,68.7,36.0,30.08,ESE,119,0.0,7.0,30,0.00,,CLR,0.00,VWS V13.01,2013-03-05 21:44:00,
2013-03-05 16:49:00,69.2,37.3,30.08,ESE,121,0.0,7.0,31,0.00,,CLR,0.00,VWS V13.01,2013-03-05 21:49:00,
2013-03-05 16:54:00,68.6,35.1,30.08,ESE,121,0.0,7.0,29,0.00,,CLR,0.00,VWS V13.01,2013-03-05 21:54:00,
2013-03-05 16:59:00,68.2,33.0,30.09,ESE,117,0.0,7.0,27,0.00,,CLR,0.00,VWS V13.01,2013-03-05 21:59:00,
2013-03-05 17:04:00,67.3,28.3,30.09,ESE,119,0.0,4.0,23,0.00,,CLR,0.00,VWS V13.01,2013-03-05 22:04:00,
2013-03-05 17:09:00,67.5,31.4,30.08,ESE,117,0.0,8.0,26,0.00,,CLR,0.00,VWS V13.01,2013-03-05 22:09:00,
2013-03-05 17:14:00,67.5,32.4,30.09,ESE,117,0.0,8.0,27,0.00,,CLR,0.00,VWS V13.01,2013-03-05 22:14:00,
2013-03-05 17:19:00,67.4,34.9,30.09,SE,125,0.0,11.0,30,0.00,,CLR,0.00,VWS V13.01,2013-03-05 22:19:00,
2013-03-05 17:24:00,66.7,29.8,30.09,SE,134,1.0,11.0,25,0.00,,CLR,0.00,VWS V13.01,2013-03-05 22:24:00,
2013-03-05 17:29:00,66.6,29.7,30.09,ESE,120,0.0,11.0,25,0.00,,CLR,0.00,VWS V13.01,2013-03-05 22:29:00,
2013-03-05 17:34:00,66.2,28.4,30.09,ESE,120,0.0,0.0,24,0.00,,CLR,0.00,VWS V13.01,2013-03-05 22:34:00,
2013-03-05 17:39:00,65.8,23.6,30.09,ESE,119,0.0,6.0,20,0.00,,CLR,0.00,VWS V13.01,2013-03-05 22:39:00,
2013-03-05 17:44:00,65.8,22.4,30.09,ESE,118,2.0,6.0,19,0.00,,CLR,0.00,VWS V13.01,2013-03-05 22:44:00,
2013-03-05 17:49:00,65.9,27.1,30.09,ESE,117,0.0,6.0,23,0.00,,CLR,0.00,VWS V13.01,2013-03-05 22:49:00,
2013-03-05 17:54:00,65.6,29.8,30.09,ESE,123,0.0,7.0,26,0.00,,CLR,0.00,VWS V13.01,2013-03-05 22:54:00,
2013-03-05 17:59:00,65.3,26.6,30.09,ESE,121,0.0,7.0,23,0.00,,CLR,0.00,VWS V13.01,2013-03-05 22:59:00,
2013-03-05 18:04:00,64.8,22.8,30.09,SE,125,0.0,1.0,20,0.00,,CLR,0.00,VWS V13.01,2013-03-05 23:04:00,
2013-03-05 18:09:00,64.5,18.8,30.09,SE,126,0.0,1.0,17,0.00,,CLR,0.00,VWS V13.01,2013-03-05 23:09:00,
2013-03-05 18:14:00,64.0,12.2,30.09,SE,125,0.0,1.0,13,0.00,,CLR,0.00,VWS V13.01,2013-03-05 23:14:00,
2013-03-05 18:19:00,63.8,8.3,30.09,SE,126,0.0,1.0,11,0.00,,CLR,0.00,VWS V13.01,2013-03-05 23:19:00,
2013-03-05 18:24:00,63.5,-4.9,30.09,SE,126,0.0,1.0,6,0.00,,CLR,0.00,VWS V13.01,2013-03-05 23:24:00,
2013-03-05 18:29:00,63.4,3.6,30.09,SE,126,0.0,1.0,9,0.00,,CLR,0.00,VWS V13.01,2013-03-05 23:29:00,
2013-03-05 18:34:00,63.2,0.9,30.09,SE,126,0.0,0.0,8,0.00,,CLR,0.00,VWS V13.01,2013-03-05 23:34:00,
2013-03-05 18:39:00,63.1,-8.9,30.09,SE,126,0.0,0.0,5,0.00,,CLR,0.00,VWS V13.01,2013-03-05 23:39:00,
2013-03-05 18:44:00,63.0,-39.2,30.09,SE,126,0.0,0.0,1,0.00,,CLR,0.00,VWS V13.01,2013-03-05 23:44:00,
2013-03-05 18:49:00,63.0,0.0,30.09,SE,126,0.0,0.0,0,0.00,,CLR,0.00,VWS V13.01,2013-03-05 23:49:00,
2013-03-05 18:54:00,62.9,0.0,30.09,SE,126,0.0,0.0,0,0.00,,CLR,0.00,VWS V13.01,2013-03-05 23:54:00,
2013-03-05 18:59:00,62.8,0.0,30.09,SE,126,0.0,0.0,0,0.00,,CLR,0.00,VWS V13.01,2013-03-05 23:59:00,
2013-03-05 19:04:00,62.8,0.0,30.09,SE,126,0.0,0.0,0,0.00,,CLR,0.00,VWS V13.01,2013-03-06 00:04:00,
2013-03-05 19:09:00,62.7,0.0,30.10,SE,126,0.0,0.0,0,0.00,,CLR,0.00,VWS V13.01,2013-03-06 00:09:00,
2013-03-05 19:14:00,62.7,0.0,30.10,SE,126,0.0,0.0,0,0.00,,CLR,0.00,VWS V13.01,2013-03-06 00:14:00,
2013-03-05 19:19:00,62.7,0.0,30.10,SE,126,0.0,0.0,0,0.00,,CLR,0.00,VWS V13.01,2013-03-06 00:19:00,
2013-03-05 19:24:00,62.7,0.0,30.10,SE,126,0.0,0.0,0,0.00,,CLR,0.00,VWS V13.01,2013-03-06 00:24:00,
2013-03-05 19:29:00,62.8,0.0,30.10,SE,127,0.0,0.0,0,0.00,,CLR,0.00,VWS V13.01,2013-03-06 00:29:00,
2013-03-05 19:34:00,62.7,0.0,30.10,SE,127,0.0,0.0,0,0.00,,CLR,0.00,VWS V13.01,2013-03-06 00:34:00,
2013-03-05 19:39:00,63.0,0.0,30.10,SE,127,0.0,0.0,0,0.00,,CLR,0.00,VWS V13.01,2013-03-06 00:39:00,
2013-03-05 19:44:00,62.7,0.0,30.10,SE,127,0.0,0.0,0,0.00,,CLR,0.00,VWS V13.01,2013-03-06 00:44:00,
2013-03-05 19:49:00,62.7,0.0,30.10,SE,127,0.0,0.0,0,0.00,,CLR,0.00,VWS V13.01,2013-03-06 00:49:00,
2013-03-05 19:54:00,63.2,0.0,30.10,SE,127,0.0,0.0,0,0.00,,CLR,0.00,VWS V13.01,2013-03-06 00:54:00,
2013-03-05 19:59:00,63.2,0.0,30.10,SE,127,0.0,0.0,0,0.00,,CLR,0.00,VWS V13.01,2013-03-06 00:59:00,
2013-03-05 20:04:00,63.2,0.0,30.10,SE,127,0.0,0.0,0,0.00,,CLR,0.00,VWS V13.01,2013-03-06 01:04:00,
2013-03-05 20:09:00,63.7,0.0,30.10,SE,127,0.0,0.0,0,0.00,,CLR,0.00,VWS V13.01,2013-03-06 01:09:00,
2013-03-05 20:14:00,63.7,0.0,30.11,SE,127,0.0,0.0,0,0.00,,CLR,0.00,VWS V13.01,2013-03-06 01:14:00,
2013-03-05 20:19:00,63.7,0.0,30.11,SE,127,0.0,0.0,0,0.00,,CLR,0.00,VWS V13.01,2013-03-06 01:19:00,
2013-03-05 20:24:00,64.1,0.0,30.11,SE,127,0.0,0.0,0,0.00,,CLR,0.00,VWS V13.01,2013-03-06 01:24:00,
2013-03-05 20:29:00,64.2,0.0,30.11,SE,127,0.0,0.0,0,0.00,,CLR,0.00,VWS V13.01,2013-03-06 01:29:00,
2013-03-05 20:34:00,64.8,0.0,30.11,SE,127,0.0,0.0,0,0.00,,CLR,0.00,VWS V13.01,2013-03-06 01:34:00,
2013-03-05 20:39:00,64.9,0.0,30.11,SE,127,0.0,1.0,0,0.00,,CLR,0.00,VWS V13.01,2013-03-06 01:39:00,
2013-03-05 20:44:00,64.9,0.0,30.11,SE,127,0.0,1.0,0,0.00,,CLR,0.00,VWS V13.01,2013-03-06 01:44:00,
2013-03-05 20:49:00,65.0,0.0,30.11,SE,127,0.0,1.0,0,0.00,,CLR,0.00,VWS V13.01,2013-03-06 01:49:00,
2013-03-05 20:54:00,65.1,0.0,30.11,SE,127,0.0,1.0,0,0.00,,CLR,0.00,VWS V13.01,2013-03-06 01:54:00,
2013-03-05 20:59:00,65.3,0.0,30.11,SE,127,0.0,2.0,0,0.00,,CLR,0.00,VWS V13.01,2013-03-06 01:59:00,
2013-03-05 21:04:00,65.3,0.0,30.11,SE,127,0.0,0.0,0,0.00,,SCT055,0.00,VWS V13.01,2013-03-06 02:04:00,
2013-03-05 21:09:00,65.4,0.0,30.11,SE,127,0.0,0.0,0,0.00,,SCT055,0.00,VWS V13.01,2013-03-06 02:09:00,
2013-03-05 21:14:00,65.5,0.0,30.11,SE,127,0.0,1.0,0,0.00,,SCT055,0.00,VWS V13.01,2013-03-06 02:14:00,
2013-03-05 21:19:00,65.5,0.0,30.11,SE,127,0.0,1.0,0,0.00,,SCT055,0.00,VWS V13.01,2013-03-06 02:19:00,
2013-03-05 21:24:00,65.7,0.0,30.11,SE,128,1.0,4.0,0,0.00,,SCT055,0.00,VWS V13.01,2013-03-06 02:24:00,
2013-03-05 21:29:00,65.8,0.0,30.10,SE,140,0.0,7.0,0,0.00,,SCT055,0.00,VWS V13.01,2013-03-06 02:29:00,
2013-03-05 21:34:00,65.9,0.0,30.11,SE,140,0.0,0.0,0,0.00,,SCT055,0.00,VWS V13.01,2013-03-06 02:34:00,
2013-03-05 21:39:00,65.9,0.0,30.11,SE,140,0.0,5.0,0,0.00,,SCT055,0.00,VWS V13.01,2013-03-06 02:39:00,
2013-03-05 21:44:00,66.3,0.0,30.11,SE,140,0.0,5.0,0,0.00,,SCT055,0.00,VWS V13.01,2013-03-06 02:44:00,
2013-03-05 21:49:00,66.3,0.0,30.11,SSE,147,0.0,7.0,0,0.00,,SCT055,0.00,VWS V13.01,2013-03-06 02:49:00,
2013-03-05 21:54:00,66.4,0.0,30.11,SSE,147,0.0,7.0,0,0.00,,SCT055,0.00,VWS V13.01,2013-03-06 02:54:00,
2013-03-05 21:59:00,66.7,0.0,30.11,SSE,147,0.0,7.0,0,0.00,,SCT055,0.00,VWS V13.01,2013-03-06 02:59:00,
2013-03-05 22:04:00,66.6,0.0,30.11,SSE,147,0.0,0.0,0,0.00,,CLR,0.00,VWS V13.01,2013-03-06 03:04:00,
2013-03-05 22:09:00,66.8,0.0,30.11,SSE,147,0.0,5.0,0,0.00,,CLR,0.00,VWS V13.01,2013-03-06 03:09:00,
2013-03-05 22:14:00,66.8,0.0,30.11,SSE,147,0.0,5.0,0,0.00,,CLR,0.00,VWS V13.01,2013-03-06 03:14:00,
2013-03-05 22:19:00,67.1,0.0,30.11,SSE,147,0.0,5.0,0,0.00,,CLR,0.00,VWS V13.01,2013-03-06 03:19:00,
2013-03-05 22:24:00,67.3,0.0,30.10,SSE,147,0.0,5.0,0,0.00,,CLR,0.00,VWS V13.01,2013-03-06 03:24:00,
2013-03-05 22:29:00,67.6,0.0,30.10,SSE,147,0.0,5.0,0,0.00,,CLR,0.00,VWS V13.01,2013-03-06 03:29:00,
2013-03-05 22:34:00,67.7,0.0,30.10,SSE,147,0.0,0.0,0,0.00,,CLR,0.00,VWS V13.01,2013-03-06 03:34:00,
2013-03-05 22:39:00,67.4,0.0,30.10,SSE,147,0.0,0.0,0,0.00,,CLR,0.00,VWS V13.01,2013-03-06 03:39:00,
2013-03-05 22:44:00,67.9,0.0,30.10,SSE,147,0.0,0.0,0,0.00,,CLR,0.00,VWS V13.01,2013-03-06 03:44:00,
2013-03-05 22:49:00,67.9,0.0,30.10,SSE,147,0.0,1.0,0,0.00,,CLR,0.00,VWS V13.01,2013-03-06 03:49:00,
2013-03-05 22:54:00,67.9,0.0,30.10,SSE,147,0.0,1.0,0,0.00,,CLR,0.00,VWS V13.01,2013-03-06 03:54:00,
2013-03-05 22:59:00,67.9,0.0,30.09,SSE,147,0.0,1.0,0,0.00,,CLR,0.00,VWS V13.01,2013-03-06 03:59:00,
2013-03-05 23:04:00,67.8,0.0,30.09,SSE,147,0.0,0.0,0,0.00,,CLR,0.00,VWS V13.01,2013-03-06 04:04:00,
2013-03-05 23:09:00,67.8,0.0,30.10,SSE,147,0.0,0.0,0,0.00,,CLR,0.00,VWS V13.01,2013-03-06 04:09:00,
2013-03-05 23:14:00,67.9,0.0,30.09,SSE,147,0.0,0.0,0,0.00,,CLR,0.00,VWS V13.01,2013-03-06 04:14:00,
2013-03-05 23:19:00,68.2,0.0,30.09,SSE,147,0.0,0.0,0,0.00,,CLR,0.00,VWS V13.01,2013-03-06 04:19:00,
2013-03-05 23:24:00,68.1,0.0,30.09,SSE,147,0.0,0.0,0,0.00,,CLR,0.00,VWS V13.01,2013-03-06 04:24:00,
2013-03-05 23:29:00,68.2,0.0,30.09,SSE,147,0.0,0.0,0,0.00,,CLR,0.00,VWS V13.01,2013-03-06 04:29:00,
2013-03-05 23:34:00,68.2,0.0,30.09,SSE,147,0.0,0.0,0,0.00,,CLR,0.00,VWS V13.01,2013-03-06 04:34:00,
2013-03-05 23:39:00,68.3,0.0,30.09,SSE,147,0.0,0.0,0,0.00,,CLR,0.00,VWS V13.01,2013-03-06 04:39:00,
2013-03-05 23:44:00,68.4,0.0,30.09,SSE,147,0.0,0.0,0,0.00,,CLR,0.00,VWS V13.01,2013-03-06 04:44:00,
2013-03-05 23:49:00,68.3,0.0,30.09,SSE,147,0.0,1.0,0,0.00,,CLR,0.00,VWS V13.01,2013-03-06 04:49:00,
2013-03-05 23:54:00,68.3,0.0,30.08,SSE,147,0.0,1.0,0,0.00,,CLR,0.00,VWS V13.01,2013-03-06 04:54:00,
2013-03-05 23:59:00,68.1,0.0,30.08,SSE,147,0.0,1.0,0,0.00,,CLR,0.00,VWS V13.01,2013-03-06 04:59:00,